Weather History for Ironwood, MI

Change the Weather History Date:

Thursday, March 8, 2012

  Actual Average Record
Temperature  
Mean Temperature 28 °F -  
Max Temperature 33 °F 27 °F 42 °F (2013)
Min Temperature 23 °F 9 °F -18 °F (2008)
Degree Days  
Heating Degree Days 37    
Moisture  
Dew Point 17 °F    
Average Humidity 67    
Maximum Humidity 80    
Minimum Humidity 44    
Precipitation  
Precipitation 0.00 in - - ()
Sea Level Pressure  
Sea Level Pressure 29.91 in    
Wind  
Wind Speed 13 mph (West)    
Max Wind Speed 23 mph    
Max Gust Speed 37 mph    
Visibility 9 miles    
Events      
Averages and records for this station are not official NWS values.
T = Trace of Precipitation, MM = Missing Value Source: NWS Daily Summary

Daily Weather History Graph

Daily Weather History Graph

Search for Another Location

Airport:

Trip Planner

Search our weather history database for the weather conditions in past years. The results will help you decide how hot, cold, wet, or windy it might be!

Date:

Astronomy

Mar. 08, 2012 Rise Set
Actual Time 6:25 AM CST 5:57 PM CST
Civil Twilight 5:55 AM CST 6:27 PM CST
Nautical Twilight 5:20 AM CST 7:02 PM CST
Astronomical Twilight 4:45 AM CST 7:37 PM CST
Moon 6:51 PM CST (3/8) 6:05 AM CST (3/8)
Length of Visible Light 12h 31m
Length of Day
11h 31m
Full, 100% of the Moon is Illuminated
Mar 8
Full
Mar 14
Last Quarter
Mar 22
New
Mar 30
First Quarter
Apr 6
Full

Hourly Weather History & Observations

Time (CST) Temp. Windchill Dew Point Humidity Pressure Visibility Wind Dir Wind Speed Gust Speed Precip Events Conditions
12:15 AM 28.4 °F 18.0 °F 21.2 °F 74% 29.76 in 10.0 mi NW 12.7 mph - N/A   Overcast
12:35 AM 28.4 °F 18.0 °F 21.2 °F 74% 29.78 in 10.0 mi NW 12.7 mph 19.6 mph N/A   Overcast
12:55 AM 26.6 °F 16.2 °F 19.4 °F 74% 29.78 in 10.0 mi NW 11.5 mph - N/A   Overcast
1:15 AM 26.6 °F 16.8 °F 19.4 °F 74% 29.79 in 10.0 mi WNW 10.4 mph - N/A   Overcast
1:35 AM 26.6 °F 18.2 °F 19.4 °F 74% 29.80 in 10.0 mi NW 8.1 mph - N/A   Overcast
1:55 AM 26.6 °F 15.2 °F 19.4 °F 74% 29.81 in 10.0 mi NW 13.8 mph 20.7 mph N/A   Overcast
2:55 AM 26.6 °F 14.7 °F 17.6 °F 69% 29.83 in 10.0 mi NW 15.0 mph 19.6 mph N/A   Overcast
3:15 AM 26.6 °F 18.2 °F 17.6 °F 69% 29.83 in 10.0 mi NW 8.1 mph - N/A   Overcast
3:35 AM 26.6 °F 16.8 °F 17.6 °F 69% 29.83 in 10.0 mi NW 10.4 mph - N/A   Overcast
3:55 AM 26.6 °F 19.1 °F 19.4 °F 74% 29.84 in 10.0 mi WNW 6.9 mph - N/A   Overcast
4:15 AM 26.6 °F 16.2 °F 19.4 °F 74% 29.85 in 10.0 mi WNW 11.5 mph 16.1 mph N/A   Overcast
4:35 AM 26.6 °F 16.2 °F 17.6 °F 69% 29.86 in 10.0 mi WNW 11.5 mph - N/A   Overcast
4:55 AM 26.6 °F 16.2 °F 17.6 °F 69% 29.87 in 10.0 mi WNW 11.5 mph - N/A   Overcast
5:15 AM 26.6 °F 15.2 °F 17.6 °F 69% 29.88 in 10.0 mi WNW 13.8 mph - N/A   Overcast
5:35 AM 24.8 °F 14.6 °F 17.6 °F 74% 29.90 in 10.0 mi West 10.4 mph - N/A   Overcast
5:55 AM 24.8 °F 13.4 °F 17.6 °F 74% 29.90 in 10.0 mi West 12.7 mph 17.3 mph N/A   Overcast
6:15 AM 24.8 °F 14.0 °F 17.6 °F 74% 29.91 in 10.0 mi West 11.5 mph 16.1 mph N/A   Overcast
6:35 AM 24.8 °F 14.0 °F 17.6 °F 74% 29.92 in 10.0 mi West 11.5 mph - N/A   Overcast
6:55 AM 24.8 °F 13.4 °F 17.6 °F 74% 29.92 in 10.0 mi West 12.7 mph - N/A   Overcast
7:15 AM 24.8 °F 13.4 °F 15.8 °F 69% 29.94 in 10.0 mi West 12.7 mph - N/A   Overcast
7:35 AM 24.8 °F 13.4 °F 17.6 °F 74% 29.94 in 10.0 mi West 12.7 mph - N/A   Overcast
7:55 AM 23.0 °F 13.1 °F 15.8 °F 74% 29.94 in 10.0 mi West 9.2 mph - N/A   Overcast
8:15 AM 23.0 °F 11.7 °F 15.8 °F 74% 29.95 in 10.0 mi West 11.5 mph - N/A   Overcast
8:35 AM 23.0 °F 11.1 °F 17.6 °F 80% 29.95 in 10.0 mi West 12.7 mph - N/A   Overcast
8:55 AM 23.0 °F 12.4 °F 17.6 °F 80% 29.96 in 10.0 mi West 10.4 mph - N/A   Overcast
9:15 AM 24.8 °F 14.0 °F 17.6 °F 74% 29.96 in 10.0 mi West 11.5 mph - N/A   Overcast
9:35 AM 24.8 °F 14.6 °F 15.8 °F 69% 29.97 in 10.0 mi West 10.4 mph - N/A   Overcast
9:55 AM 24.8 °F 13.4 °F 17.6 °F 74% 29.97 in 10.0 mi West 12.7 mph - N/A   Overcast
10:15 AM 24.8 °F 13.4 °F 15.8 °F 69% 29.97 in 10.0 mi West 12.7 mph 18.4 mph N/A   Overcast
10:35 AM 24.8 °F 14.0 °F 15.8 °F 69% 29.98 in 10.0 mi West 11.5 mph - N/A   Overcast
10:55 AM 24.8 °F 14.0 °F 17.6 °F 74% 29.98 in 10.0 mi West 11.5 mph - N/A   Overcast
11:15 AM 26.6 °F 15.2 °F 15.8 °F 64% 29.98 in 10.0 mi WSW 13.8 mph - N/A   Overcast
11:35 AM 26.6 °F 16.2 °F 17.6 °F 69% 29.99 in 10.0 mi West 11.5 mph - N/A   Overcast
11:55 AM 26.6 °F 15.7 °F 14.0 °F 59% 29.99 in 10.0 mi West 12.7 mph - N/A   Overcast
12:15 PM 28.4 °F 17.5 °F 15.8 °F 59% 29.98 in 10.0 mi West 13.8 mph - N/A   Scattered Clouds
12:35 PM 28.4 °F 17.5 °F 15.8 °F 59% 29.97 in 10.0 mi SW 13.8 mph 19.6 mph N/A   Partly Cloudy
12:55 PM 28.4 °F 17.0 °F 14.0 °F 55% 29.96 in 10.0 mi WSW 15.0 mph 18.4 mph N/A   Clear
1:15 PM 28.4 °F 18.0 °F 12.2 °F 51% 29.96 in 10.0 mi West 12.7 mph 20.7 mph N/A   Clear
1:35 PM 30.2 °F 19.8 °F 12.2 °F 47% 29.95 in 10.0 mi WSW 13.8 mph 20.7 mph N/A   Partly Cloudy
1:55 PM 30.2 °F 18.1 °F 12.2 °F 47% 29.94 in 10.0 mi WSW 18.4 mph 21.9 mph N/A   Partly Cloudy
2:15 PM 30.2 °F 18.9 °F 12.2 °F 47% 29.92 in 10.0 mi West 16.1 mph - N/A   Clear
2:35 PM 32.0 °F 20.1 °F 12.2 °F 44% 29.91 in 10.0 mi WSW 19.6 mph 23.0 mph N/A   Clear
2:55 PM 30.2 °F 18.1 °F 12.2 °F 47% 29.90 in 10.0 mi West 18.4 mph 31.1 mph N/A   Clear
3:15 PM 32.0 °F 20.8 °F 14.0 °F 48% 29.89 in 10.0 mi SW 17.3 mph 24.2 mph N/A   Clear
3:35 PM 33.8 °F 22.8 °F 14.0 °F 44% 29.88 in 10.0 mi SW 18.4 mph 28.8 mph N/A   Partly Cloudy
3:55 PM 32.0 °F 20.5 °F 14.0 °F 48% 29.88 in 10.0 mi SW 18.4 mph 21.9 mph N/A   Scattered Clouds
4:15 PM 32.0 °F 19.8 °F 12.2 °F 44% 29.88 in 10.0 mi WSW 20.7 mph - N/A   Mostly Cloudy
4:35 PM 32.0 °F 20.8 °F 14.0 °F 48% 29.88 in 10.0 mi WSW 17.3 mph 23.0 mph N/A   Overcast
4:55 PM 32.0 °F 19.5 °F 15.8 °F 51% 29.90 in 8.0 mi WSW 21.9 mph 28.8 mph N/A   Overcast
5:15 PM 28.4 °F 14.7 °F 19.4 °F 69% 29.90 in 4.0 mi West 21.9 mph 29.9 mph N/A   Mostly Cloudy
5:35 PM 28.4 °F 15.4 °F 19.4 °F 69% 29.90 in 4.0 mi WSW 19.6 mph 31.1 mph N/A   Mostly Cloudy
5:55 PM 28.4 °F 15.4 °F 19.4 °F 69% 29.91 in 9.0 mi West 19.6 mph 27.6 mph N/A   Mostly Cloudy
6:15 PM 28.4 °F 15.4 °F 21.2 °F 74% 29.92 in 1.5 mi WSW 19.6 mph 24.2 mph N/A   Overcast
6:35 PM 28.4 °F 15.4 °F 21.2 °F 74% 29.92 in 10.0 mi West 19.6 mph 27.6 mph N/A   Overcast
6:55 PM 28.4 °F 15.4 °F 21.2 °F 74% 29.92 in 6.0 mi WSW 19.6 mph 25.3 mph N/A   Overcast
7:15 PM 26.6 °F 13.4 °F 21.2 °F 80% 29.94 in 0.8 mi West 18.4 mph 34.5 mph N/A   Overcast
7:35 PM 26.6 °F 14.3 °F 21.2 °F 80% 29.94 in 10.0 mi West 16.1 mph - N/A   Mostly Cloudy
7:55 PM 26.6 °F 12.0 °F 21.2 °F 80% 29.94 in 7.0 mi West 23.0 mph 28.8 mph N/A   Mostly Cloudy
8:15 PM 26.6 °F 12.7 °F 19.4 °F 74% 29.96 in 2.0 mi West 20.7 mph 33.4 mph N/A   Overcast
8:35 PM 26.6 °F 12.4 °F 19.4 °F 74% 29.97 in 1.8 mi WNW 21.9 mph 36.8 mph N/A   Overcast
8:55 PM 26.6 °F 11.7 °F 19.4 °F 74% 29.99 in 2.5 mi WNW 24.2 mph 31.1 mph N/A   Overcast
9:15 PM 26.6 °F 13.4 °F 17.6 °F 69% 30.01 in 5.0 mi WNW 18.4 mph 29.9 mph N/A   Overcast
9:35 PM 24.8 °F 10.0 °F 19.4 °F 80% 30.02 in 1.0 mi West 21.9 mph 34.5 mph N/A   Overcast
9:55 PM 24.8 °F 9.3 °F 17.6 °F 74% 30.05 in 1.2 mi WNW 24.2 mph 35.7 mph N/A   Overcast
10:15 PM - - - N/A% 30.05 in 1.5 mi WNW 17.3 mph 35.7 mph N/A   Overcast
10:35 PM 24.8 °F 9.0 °F 15.8 °F 69% 30.07 in 3.0 mi NW 25.3 mph 33.4 mph N/A   Overcast
10:55 PM 24.8 °F 9.6 °F 14.0 °F 64% 30.09 in 3.0 mi WNW 23.0 mph 33.4 mph N/A   Overcast
11:15 PM 23.0 °F 9.6 °F 12.2 °F 63% 30.11 in 5.0 mi WNW 16.1 mph 28.8 mph N/A   Overcast
11:35 PM 23.0 °F 6.6 °F 14.0 °F 68% 30.12 in 3.0 mi NW 25.3 mph 34.5 mph N/A   Overcast
11:55 PM 23.0 °F 9.2 °F 12.2 °F 63% 30.13 in 3.0 mi WNW 17.3 mph 31.1 mph N/A   Overcast